DateTimeUTC,F1_A11,F1_S11,BsB_S11,BsG_S11,BsR_S11,BbsB_S11,BbsG_S11,BbsR_S11,BaB_A11,BaG_A11,BaR_A11,Tu_S11,T_S11,Uu_S11,U_S11,P_S11,T1_A11
2021-06-24T05:00:00Z,00000200,20000000,,,,,,,-000.20,-000.01,0000.06,17.9,24.8,03.7,02.4,0673.4,31.1
2021-06-24T05:01:00Z,00000200,20000000,,,,,,,-000.09,-000.03,-000.49,17.9,24.8,03.7,02.4,0673.4,31.1
2021-06-24T05:02:00Z,00000200,20000000,,,,,,,0000.14,-000.34,0000.01,17.9,24.8,03.7,02.4,0673.4,31.1
2021-06-24T05:03:00Z,00000200,60000000,,,,,,,-000.02,0000.17,0000.35,17.9,24.8,03.7,02.4,0673.4,31.1
2021-06-24T05:04:00Z,00000200,40000000,0002.25,0000.87,0000.58,0000.03,0000.25,0000.30,0000.68,0000.63,0000.06,18.0,24.7,03.8,02.6,0674.3,31.1
2021-06-24T05:05:00Z,00000200,00000000,0001.71,0000.66,0000.63,0000.88,0000.28,0000.04,0000.20,0000.36,0000.21,18.0,24.6,03.9,02.6,0674.4,31.1
2021-06-24T05:06:00Z,00000200,00000000,0001.23,0000.97,0000.85,0000.23,0000.14,0000.11,0000.40,0000.14,0000.15,18.0,24.6,04.0,02.7,0674.4,31.1
2021-06-24T05:07:00Z,00000200,00000000,0001.07,0000.82,0000.81,0000.13,0000.11,0000.28,0000.33,0000.44,0000.41,18.0,24.6,04.2,02.8,0674.4,31.1
2021-06-24T05:08:00Z,00000200,00000000,0001.58,0000.93,0000.56,0000.06,0000.24,0000.37,0000.20,0000.03,0000.23,18.0,24.5,04.1,02.8,0674.4,31.1
2021-06-24T05:09:00Z,00000200,00000000,0001.11,0000.97,0000.78,-000.26,0000.16,-000.04,0000.50,0000.54,0000.05,17.9,24.5,04.2,02.8,0674.4,31.1
2021-06-24T05:10:00Z,00000200,00000000,0001.62,0000.75,0000.97,0000.13,0000.05,0000.06,0000.65,0000.19,0000.39,17.9,24.5,04.2,02.8,0674.4,31.1
2021-06-24T05:11:00Z,00000200,00000000,0001.04,0000.75,0000.74,0000.18,0000.03,0000.23,0000.33,0000.67,0000.23,17.9,24.5,04.4,03.0,0674.4,31.1
2021-06-24T05:12:00Z,00000200,00000000,0001.48,0000.94,0000.70,0000.56,0000.25,0000.19,0000.25,0000.02,0000.40,17.9,24.5,04.4,02.9,0674.4,31.1
2021-06-24T05:13:00Z,00000200,00000000,0001.18,0000.98,0000.70,0000.36,0000.10,0000.03,0000.53,0000.70,0000.10,18.0,24.5,04.5,03.0,0674.4,31.1
2021-06-24T05:14:00Z,00000200,00000000,0001.35,0000.84,0000.45,-000.42,0000.18,0000.03,0000.23,0000.34,0000.28,18.0,24.5,04.6,03.1,0674.4,31.1
2021-06-24T05:15:00Z,00000200,00000000,0000.65,0000.81,0000.40,0000.27,0000.18,0000.06,0000.37,0000.19,0000.31,18.0,24.5,04.7,03.1,0674.3,31.1
2021-06-24T05:16:00Z,00000200,00000000,0000.61,0000.62,0000.57,0000.43,0000.06,-000.01,0000.47,0000.51,-000.02,18.0,24.5,04.6,03.1,0674.4,31.1
2021-06-24T05:17:00Z,00000200,00000000,0000.71,0000.87,0000.76,0000.29,0000.24,-000.06,0000.06,-000.05,0000.42,18.0,24.5,04.7,03.1,0674.4,31.1
2021-06-24T05:18:00Z,00000200,00000000,0002.13,0001.02,0000.75,0000.39,0000.07,0000.07,0000.46,0000.29,0000.37,18.0,24.5,04.8,03.2,0674.4,31.1
2021-06-24T05:19:00Z,00000200,00000000,0001.12,0001.13,0000.80,0000.57,0000.11,-000.01,0000.65,0000.40,0000.19,17.9,24.5,04.8,03.2,0674.4,31.1
2021-06-24T05:20:00Z,00000200,00000000,0001.58,0001.30,0000.75,0000.17,-000.16,0000.22,0000.18,0000.29,0000.21,17.9,24.5,04.9,03.3,0674.4,31.1
2021-06-24T05:21:00Z,00000200,00000000,0002.38,0000.95,0000.74,0000.51,-000.09,0000.19,0000.41,0000.46,-000.15,17.9,24.4,04.9,03.3,0674.4,31.1
2021-06-24T05:22:00Z,00000200,00000000,0001.63,0000.66,0000.73,0000.78,-000.02,0000.16,0000.47,0000.48,0001.04,17.9,24.4,05.0,03.4,0674.3,31.0
2021-06-24T05:23:00Z,00000200,00000000,0002.12,0000.75,0000.94,0000.80,0000.13,0000.10,0000.42,0000.14,-000.40,17.9,24.4,05.0,03.3,0674.3,31.1
2021-06-24T05:24:00Z,00000200,00000000,0001.98,0000.83,0000.67,0000.60,0000.06,0000.12,0000.13,0000.21,0000.44,17.8,24.4,05.0,03.4,0674.3,31.0
2021-06-24T05:25:00Z,00000200,00000000,0001.81,0000.93,0000.63,-000.23,0000.27,0000.34,0000.64,0000.64,0000.33,17.8,24.3,05.1,03.4,0674.2,31.0
2021-06-24T05:26:00Z,00000200,00000000,0001.81,0000.81,0000.62,0000.59,0000.35,0000.20,0000.23,-000.10,0000.30,17.8,24.3,05.1,03.4,0674.3,31.0
2021-06-24T05:27:00Z,00000200,00000000,0001.64,0001.16,0000.79,0000.18,0000.06,0000.06,0000.68,0000.51,0000.28,17.8,24.3,05.2,03.5,0674.2,31.0
2021-06-24T05:28:00Z,00000200,00000000,0001.04,0000.94,0000.56,-000.09,-000.01,-000.09,0000.28,0000.54,0000.31,17.9,24.4,05.1,03.4,0674.2,31.0
2021-06-24T05:29:00Z,00000200,00000000,0000.96,0000.82,0000.65,0000.02,0000.05,0000.24,0000.31,0000.40,0000.10,18.0,24.4,05.1,03.5,0674.3,31.1
2021-06-24T05:30:00Z,00000200,00000000,0001.27,0000.86,0000.62,0000.15,0000.07,0000.08,0000.42,0000.43,0000.51,18.1,24.4,05.2,03.5,0674.3,31.1
2021-06-24T05:31:00Z,00000200,00000000,0001.95,0001.05,0000.77,0000.48,-000.09,-000.01,0000.43,0000.35,0000.23,18.1,24.5,05.2,03.5,0674.3,31.1
2021-06-24T05:32:00Z,00000200,00000000,0001.39,0001.24,0001.15,0000.43,0000.14,-000.04,0000.07,-000.14,0000.04,18.2,24.5,05.2,03.5,0674.2,31.1
2021-06-24T05:33:00Z,00000200,00000000,0001.48,0000.93,0000.59,0000.15,0000.21,0000.03,0000.14,0000.36,0000.19,18.2,24.5,05.2,03.5,0674.3,31.1
2021-06-24T05:34:00Z,00000200,00000000,0001.13,0000.83,0000.76,0000.78,0000.12,0000.06,0000.59,0000.50,0000.06,18.2,24.5,05.2,03.5,0674.3,31.1
2021-06-24T05:35:00Z,00000200,00000000,0001.56,0000.59,0000.60,0000.12,0000.32,-000.30,0000.39,0000.33,0000.46,18.1,24.5,05.2,03.5,0674.3,31.1
2021-06-24T05:36:00Z,00000200,00000000,0001.06,0000.79,0000.58,-000.04,0000.07,0000.14,0000.16,0000.18,0000.23,18.1,24.5,05.3,03.6,0674.3,31.1
2021-06-24T05:37:00Z,00000200,00000000,0001.80,0000.91,0000.50,0000.40,0000.09,0000.21,0000.32,0000.51,-000.12,18.1,24.5,05.4,03.7,0674.3,31.1
2021-06-24T05:38:00Z,00000200,00000000,0001.74,0000.87,0000.58,-000.26,-000.08,0000.19,0000.51,0000.18,0000.41,18.1,24.5,05.3,03.6,0674.3,31.1
2021-06-24T05:39:00Z,00000200,00000000,0001.62,0001.07,0000.46,0000.52,0000.25,0000.08,0000.45,0000.20,0000.33,18.0,24.5,05.5,03.7,0674.3,31.1
2021-06-24T05:40:00Z,00000200,00000000,0001.47,0000.65,0000.61,0000.24,0000.31,0000.08,0000.51,0000.38,0000.16,18.0,24.4,05.4,03.7,0674.3,31.1
2021-06-24T05:41:00Z,00000200,00000000,0002.24,0001.07,0001.11,0000.55,0000.21,0000.15,0000.16,0000.35,0000.26,18.0,24.4,05.5,03.7,0674.3,31.1
2021-06-24T05:42:00Z,00000200,00000000,0001.37,0000.94,0000.66,-000.15,0000.01,-000.05,0000.66,0000.48,0000.49,18.0,24.4,05.4,03.7,0674.3,31.1
2021-06-24T05:43:00Z,00000200,00000000,0001.90,0000.71,0000.72,-000.07,0000.29,0000.00,0000.22,0000.26,0000.04,18.1,24.4,05.4,03.7,0674.3,31.1
2021-06-24T05:44:00Z,00000200,00000000,0001.66,0001.13,0000.58,0000.24,0000.27,-000.15,0000.44,0000.55,0000.18,18.1,24.5,05.4,03.7,0674.4,31.1
2021-06-24T05:45:00Z,00000200,00000000,0001.70,0000.88,0000.91,0000.61,0000.25,-000.00,0000.11,-000.11,0000.39,18.1,24.5,05.5,03.7,0674.3,31.1
2021-06-24T05:46:00Z,00000200,00000000,0001.10,0001.19,0000.84,0000.94,0000.02,0000.29,0000.14,0000.24,0000.18,18.1,24.5,05.5,03.7,0674.3,31.1
2021-06-24T05:47:00Z,00000200,00000000,0001.54,0001.08,0000.99,0000.56,0000.25,0000.04,0000.42,0000.41,0000.03,18.2,24.5,05.4,03.7,0674.3,31.1
2021-06-24T05:48:00Z,00000200,00000000,0001.56,0001.14,0000.77,-000.18,0000.10,0000.14,0000.19,0000.29,0000.17,18.1,24.5,05.5,03.7,0674.3,31.1
2021-06-24T05:49:00Z,00000200,00000000,0001.99,0000.89,0000.66,0000.06,0000.13,0000.20,0000.49,0000.24,0000.54,18.1,24.5,05.4,03.7,0674.3,31.1
2021-06-24T05:50:00Z,00000200,00000000,0001.24,0000.86,0000.67,0000.33,0000.20,0000.10,0000.67,0000.60,0000.23,18.1,24.5,05.5,03.7,0674.3,31.1
2021-06-24T05:51:00Z,00000200,00000000,0001.85,0001.06,0000.84,-000.08,0000.23,0000.06,0000.07,0000.02,0000.18,18.0,24.4,05.5,03.7,0674.3,31.1
2021-06-24T05:52:00Z,00000200,00000000,0001.66,0000.83,0000.78,0000.15,0000.16,0000.09,0000.36,0000.50,0000.21,18.0,24.4,05.6,03.8,0674.3,31.0
2021-06-24T05:53:00Z,00000200,00000000,0001.42,0001.13,0000.88,0000.60,-000.06,0000.06,0000.36,0000.17,-000.01,18.0,24.4,05.6,03.8,0674.3,31.0
2021-06-24T05:54:00Z,00000200,00000000,0001.64,0000.62,0000.76,0000.77,0000.17,0000.15,0000.49,0000.53,0000.46,18.0,24.4,05.6,03.8,0674.3,31.0
2021-06-24T05:55:00Z,00000200,00000000,0001.31,0000.92,0000.40,0000.37,0000.07,0000.21,0000.42,0000.17,0000.41,17.9,24.3,05.7,03.9,0674.3,31.0
2021-06-24T05:56:00Z,00000200,00000000,0001.89,0000.80,0000.57,0000.28,0000.18,0000.07,0000.47,0000.44,0000.24,17.9,24.3,05.7,03.9,0674.3,31.0
2021-06-24T05:57:00Z,00000200,40000000,,,,,,,-000.44,-000.09,-000.34,18.0,24.4,05.5,03.7,0674.3,31.1
2021-06-24T05:58:00Z,00000200,60000000,,,,,,,0000.24,0000.16,0000.31,17.8,24.5,05.3,03.5,0673.3,31.1
2021-06-24T05:59:00Z,00000200,20000000,,,,,,,0000.10,0000.01,0000.12,17.8,24.7,05.6,03.6,0673.3,31.1
